Wind_Speed
31 31 30 29 28 27 25 23 21 20 18 17 15 14 13 12 11 11 11 10 10 10 9 8 8 7 6 6 6 5 5 5 5 5 4 4 3 2 2 2 3 5 6
32 31 31 31 31 30 28 26 24 22 21 19 18 17 15 14 13 13 12 12 12 11 11 10 9 8 8 7 7 7 6 6 6 6 6 5 4 4 4 4 4 5 6
34 32 31 31 32 32 31 29 27 25 24 22 21 19 18 16 15 14 14 13 13 13 12 11 10 9 9 9 8 8 8 8 7 7 7 6 6 5 5 5 5 6 7
35 33 32 32 33 33 33 31 30 28 27 25 24 22 20 19 17 16 15 14 14 14 13 13 12 11 10 10 10 10 9 9 9 8 8 7 7 7 6 7 7 7 8
37 35 35 34 34 34 34 34 32 31 29 28 26 25 23 21 20 18 17 17 16 15 15 14 13 12 12 11 11 11 11 10 10 9 9 8 8 8 8 8 9 9 9
39 38 36 35 35 35 35 35 35 33 32 30 28 27 25 24 22 20 19 18 17 17 17 16 15 14 13 12 12 12 12 12 11 10 10 10 10 10 10 10 10 10 10
42 40 38 37 36 36 36 36 36 35 34 32 31 29 27 26 24 23 21 20 19 18 18 17 17 16 15 14 13 13 13 12 12 12 12 12 11 11 11 11 11 11 12
45 43 41 39 38 37 38 37 37 37 36 34 33 31 29 28 26 25 23 22 21 20 19 19 18 17 16 15 15 15 14 14 13 13 13 13 13 13 13 13 13 13 13
49 46 44 42 41 40 40 39 39 38 38 36 35 34 32 30 28 27 25 23 22 21 21 20 19 19 18 17 16 16 15 15 15 14 14 14 14 14 14 14 14 14 14
52 49 46 45 43 42 42 41 41 40 39 38 37 36 34 32 30 29 27 25 24 23 22 21 21 20 19 18 17 17 17 17 16 16 16 16 16 16 16 16 16 16 16
54 52 49 47 46 44 44 43 42 41 40 39 39 37 35 34 32 30 29 27 26 25 24 23 22 21 20 19 19 19 19 18 18 17 17 17 17 17 17 17 17 17 18
56 55 52 50 48 47 46 45 44 43 42 41 40 38 37 35 34 32 30 29 27 26 25 24 23 23 22 21 21 20 20 20 19 19 19 19 19 19 19 19 19 19 19
57 56 54 53 51 49 48 47 46 45 44 42 41 40 38 37 35 34 32 30 29 27 26 25 24 24 23 23 22 22 22 22 21 21 21 21 21 21 21 21 21 21 21
59 58 57 55 54 52 50 49 49 48 46 44 42 41 40 38 37 35 33 32 30 28 28 27 26 25 25 24 24 24 24 24 24 23 23 23 23 23 23 23 23 23 23
62 61 59 57 55 55 53 51 49 48 48 46 44 42 41 39 38 37 35 33 32 31 30 29 28 27 26 26 26 26 26 26 25 25 25 25 25 25 25 25 25 25 25
62 62 61 60 58 56 55 55 52 50 49 48 46 44 42 41 39 38 37 35 34 33 32 31 30 29 29 28 28 27 27 27 27 27 27 26 27 27 27 27 27 27 27
62 64 63 62 61 58 56 56 54 52 51 49 48 45 43 42 41 40 39 38 36 35 34 33 33 32 31 30 30 29 29 29 29 29 28 28 28 28 28 29 29 29 29
61 62 63 62 61 60 58 56 54 53 51 50 48 46 45 44 42 42 41 39 39 38 37 35 35 34 33 32 31 31 31 31 31 30 30 30 30 30 31 31 31 32 32
58 58 59 59 59 60 59 57 56 54 52 51 50 49 47 46 45 44 42 41 40 39 38 37 37 36 35 34 34 34 33 33 32 32 32 32 32 33 33 33 34 34 34
54 55 56 56 58 59 59 57 57 55 53 52 51 50 48 47 46 45 44 42 41 40 39 39 38 37 37 36 36 35 35 34 34 34 34 35 35 35 35 35 35 35 35
50 53 54 54 55 56 57 58 57 56 54 53 52 51 49 47 46 45 43 42 42 41 40 40 39 38 38 38 39 39 38 37 37 37 37 37 37 37 37 37 37 37 37
45 47 50 51 52 54 53 55 55 55 54 53 51 49 48 49 47 45 45 44 43 43 43 42 41 41 41 41 42 42 41 40 39 39 39 38 39 39 38 38 38 38 39
39 41 43 47 49 50 50 52 54 54 54 52 50 49 48 48 48 46 45 46 46 45 45 44 43 43 42 43 44 44 42 41 41 40 40 40 41 41 41 40 40 40 40
33 36 37 39 43 45 48 49 50 51 50 50 49 49 48 49 48 47 46 46 47 47 46 46 45 45 45 45 46 45 44 43 43 43 42 43 43 43 43 43 42 41 41
28 32 33 35 40 41 44 46 47 47 47 48 49 49 49 48 48 47 46 46 47 46 47 46 45 46 47 47 47 46 45 46 46 46 46 46 46 46 46 45 44 43 42
22 27 29 30 35 37 40 43 45 44 44 45 45 46 47 47 47 48 47 47 47 47 46 46 45 45 46 46 45 46 46 47 47 47 48 48 48 48 47 46 45 45 45
Wind_Direction
239 238 235 235 235 234 234 235 236 238 240 242 244 245 247 248 249 248 248 249 250 251 252 255 257 256 253 251 245 236 232 231 232 234 235 237 246 265 287 314 331 340 346
241 239 236 235 235 235 234 234 236 237 238 240 243 244 245 247 248 249 248 248 250 251 253 255 257 256 254 251 247 241 238 238 240 240 242 244 251 262 275 291 311 325 334
241 240 238 235 234 234 234 234 234 236 237 239 241 244 245 245 247 249 248 248 249 250 252 254 257 256 254 252 249 245 243 243 244 247 250 251 255 264 272 282 298 311 321
241 241 239 237 235 234 234 234 234 234 236 237 240 243 244 244 245 247 247 248 249 250 251 253 255 255 254 252 250 248 247 246 246 249 252 255 259 264 270 278 290 300 310
240 240 240 238 236 234 233 234 234 234 235 236 239 241 243 243 244 246 246 247 249 250 251 252 254 255 254 253 252 251 250 250 250 251 253 256 260 266 273 280 287 294 302
240 239 240 238 236 235 234 234 234 234 235 236 238 239 241 242 243 245 246 246 248 250 252 252 253 254 254 254 254 253 252 253 253 253 255 257 262 268 273 279 284 290 296
240 239 239 239 236 235 236 235 234 234 234 236 237 238 239 241 242 243 245 245 247 250 252 252 253 254 254 255 255 254 254 253 253 255 257 260 264 269 272 277 281 285 291
240 240 238 237 236 235 236 236 235 234 234 235 236 237 239 240 242 242 243 244 247 249 251 252 253 254 254 255 255 253 253 252 252 255 259 262 265 268 271 275 278 283 288
239 240 239 237 236 235 235 235 235 235 235 235 235 236 237 240 241 242 243 244 246 248 250 252 254 253 254 254 253 252 252 252 253 256 258 261 265 268 270 274 277 281 287
238 238 237 236 236 236 235 235 234 234 234 234 235 235 236 238 240 242 243 244 246 248 249 251 253 253 253 253 252 252 252 252 254 256 259 262 265 268 271 273 277 281 285
235 236 235 234 234 234 234 233 234 233 233 234 234 235 236 237 239 241 242 244 245 247 248 250 252 252 252 252 252 252 252 253 254 256 260 264 267 269 271 274 276 279 284
235 235 234 233 232 231 231 232 233 233 233 233 233 234 235 237 239 240 240 242 243 245 247 249 252 253 252 252 253 253 254 254 255 257 260 264 267 269 271 273 276 279 282
234 233 233 232 232 230 230 231 231 231 232 232 232 233 235 236 238 239 240 241 243 245 247 249 252 253 253 254 255 255 255 255 257 259 261 264 266 269 271 273 276 279 282
233 232 231 230 230 230 229 229 230 230 231 232 232 233 234 236 238 239 240 241 242 244 246 248 251 252 254 255 255 256 257 257 258 261 263 264 266 269 271 274 276 279 282
231 231 229 228 229 230 228 227 228 228 229 231 232 232 233 235 237 239 240 241 242 244 246 248 251 252 254 255 255 256 258 259 260 261 263 265 267 269 272 274 276 279 282
230 228 227 227 227 228 228 227 228 228 229 231 232 232 233 235 237 238 239 241 243 245 246 248 250 252 253 255 256 257 258 259 261 261 263 266 268 270 272 274 276 280 282
228 228 228 226 226 227 227 226 226 227 229 231 231 232 233 234 236 239 240 240 243 245 247 249 250 251 253 254 256 258 258 259 261 262 264 266 268 270 272 275 277 280 282
227 226 225 225 224 226 226 225 225 226 228 229 230 232 233 234 236 239 240 241 242 245 247 249 250 251 252 254 256 257 259 260 261 263 265 267 269 271 273 275 277 280 282
223 223 223 223 222 222 223 223 223 223 226 228 229 232 234 236 237 239 241 242 243 245 247 249 249 250 252 254 256 257 258 260 262 264 266 267 269 271 273 276 278 279 280
219 219 220 221 221 221 220 220 222 223 225 228 230 232 234 236 238 240 240 240 243 245 247 249 251 251 252 253 255 256 258 259 261 263 265 267 269 271 273 276 278 279 280
216 217 218 218 219 219 219 220 223 224 224 226 229 231 233 235 238 241 241 242 243 245 247 249 250 251 253 255 257 258 259 260 261 263 266 268 270 272 273 275 276 278 279
216 217 220 220 219 220 220 220 221 223 224 227 230 232 234 236 238 240 241 242 243 245 247 249 252 253 255 257 258 259 260 261 263 264 266 268 270 272 274 275 275 277 278
212 215 218 219 218 220 221 220 220 221 224 228 229 230 233 236 238 239 240 241 243 246 249 250 251 253 256 257 258 260 261 263 263 264 266 268 270 271 274 273 274 276 276
211 213 218 219 217 220 220 220 221 221 224 226 228 230 233 235 236 237 239 243 246 247 249 251 252 255 256 257 259 261 263 264 264 264 266 268 270 271 273 272 273 274 275
215 216 218 220 219 220 219 219 221 221 224 226 227 230 231 234 234 236 240 244 247 248 250 253 255 256 257 259 260 262 263 264 265 266 266 267 269 271 272 271 271 273 274
209 214 214 213 218 219 219 218 220 220 222 224 225 228 231 234 236 238 240 244 245 248 250 253 255 257 258 258 260 261 263 264 264 266 268 268 269 270 270 269 270 272 273
Height
5854 5857 5860 5862 5864 5866 5868 5870 5872 5874 5876 5877 5878 5879 5880 5881 5882 5883 5883 5884 5884 5884 5885 5885 5884 5884 5884 5884 5884 5884 5884 5884 5884 5883 5883 5883 5883 5882 5882 5881 5880 5880 5879
5849 5852 5855 5857 5860 5862 5865 5867 5869 5871 5873 5875 5876 5877 5878 5879 5880 5881 5882 5882 5883 5883 5883 5883 5883 5883 5884 5884 5884 5883 5883 5883 5883 5883 5883 5882 5882 5882 5881 5880 5880 5879 5878
5844 5847 5850 5852 5855 5858 5860 5863 5865 5867 5870 5871 5873 5875 5876 5877 5878 5879 5880 5880 5881 5882 5882 5882 5882 5882 5882 5883 5882 5882 5882 5882 5882 5882 5882 5881 5881 5881 5880 5880 5879 5878 5877
5838 5841 5844 5847 5850 5853 5855 5858 5861 5864 5866 5868 5870 5871 5873 5874 5875 5877 5878 5878 5879 5880 5880 5880 5881 5881 5881 5881 5881 5881 5881 5881 5881 5881 5881 5880 5880 5879 5879 5878 5878 5877 5876
5832 5835 5838 5842 5844 5847 5850 5853 5856 5859 5862 5864 5866 5868 5870 5871 5873 5874 5875 5876 5877 5877 5878 5878 5879 5879 5879 5879 5879 5879 5879 5879 5879 5879 5879 5879 5879 5878 5878 5877 5876 5876 5875
5825 5828 5832 5835 5839 5842 5845 5848 5851 5854 5857 5860 5862 5864 5866 5868 5869 5871 5872 5873 5874 5875 5876 5876 5877 5877 5877 5878 5878 5878 5878 5878 5878 5878 5877 5877 5877 5876 5876 5875 5875 5874 5873
5817 5821 5825 5829 5832 5836 5839 5843 5846 5849 5852 5855 5858 5860 5862 5864 5866 5867 5869 5870 5871 5872 5873 5874 5874 5875 5875 5875 5876 5876 5876 5876 5876 5876 5875 5875 5875 5875 5874 5873 5873 5872 5871
5808 5813 5817 5821 5825 5829 5833 5837 5840 5843 5847 5850 5853 5856 5858 5860 5862 5864 5865 5866 5868 5869 5870 5871 5871 5872 5873 5873 5873 5873 5873 5873 5873 5873 5873 5873 5873 5872 5872 5871 5870 5870 5869
5799 5804 5809 5813 5818 5822 5826 5830 5834 5837 5841 5844 5847 5850 5853 5855 5858 5860 5861 5863 5864 5865 5867 5867 5868 5869 5870 5870 5870 5870 5871 5871 5871 5871 5871 5871 5870 5870 5869 5869 5868 5867 5866
5789 5794 5800 5805 5810 5814 5819 5823 5827 5831 5835 5838 5841 5845 5848 5850 5853 5855 5857 5859 5860 5862 5863 5864 5865 5866 5866 5867 5867 5868 5868 5868 5868 5868 5868 5868 5868 5867 5867 5866 5865 5865 5864
5778 5784 5790 5796 5801 5806 5811 5815 5819 5824 5828 5832 5835 5839 5842 5845 5848 5850 5852 5855 5856 5857 5859 5860 5861 5862 5863 5863 5864 5864 5864 5865 5865 5865 5865 5865 5864 5864 5864 5863 5862 5862 5861
5767 5774 5780 5786 5791 5797 5802 5807 5812 5816 5821 5825 5829 5833 5836 5839 5842 5845 5847 5850 5851 5853 5854 5856 5857 5858 5859 5860 5860 5861 5861 5861 5861 5862 5862 5861 5861 5861 5860 5860 5859 5858 5857
5756 5763 5769 5775 5781 5787 5793 5799 5804 5809 5813 5818 5822 5827 5830 5833 5836 5839 5842 5845 5846 5848 5850 5851 5853 5854 5855 5856 5856 5857 5857 5857 5857 5858 5858 5858 5857 5857 5856 5856 5855 5854 5853
5743 5751 5757 5764 5770 5777 5784 5789 5795 5800 5806 5811 5815 5820 5824 5827 5831 5834 5837 5839 5841 5843 5845 5846 5848 5849 5850 5851 5852 5852 5853 5853 5853 5853 5853 5853 5853 5853 5852 5851 5851 5850 5849
5730 5738 5746 5752 5759 5766 5773 5780 5787 5792 5798 5803 5808 5812 5817 5821 5824 5828 5831 5833 5836 5838 5840 5841 5843 5844 5845 5846 5847 5848 5848 5848 5848 5849 5849 5848 5848 5848 5848 5847 5846 5845 5844
5717 5725 5733 5740 5747 5755 5762 5770 5777 5783 5789 5795 5800 5804 5809 5814 5818 5821 5824 5827 5830 5832 5834 5835 5837 5838 5840 5841 5841 5842 5843 5843 5843 5843 5843 5843 5843 5843 5842 5842 5841 5840 5839
5703 5711 5719 5728 5736 5743 5751 5759 5767 5774 5780 5786 5792 5797 5802 5806 5810 5814 5817 5820 5823 5825 5827 5829 5830 5832 5833 5835 5835 5836 5837 5837 5837 5837 5837 5837 5837 5837 5836 5836 5835 5834 5833
5689 5697 5706 5715 5724 5732 5741 5749 5757 5764 5771 5777 5783 5788 5793 5798 5803 5806 5810 5812 5815 5818 5820 5822 5824 5825 5827 5828 5829 5830 5830 5831 5831 5831 5831 5831 5831 5831 5830 5829 5829 5828 5827
5676 5685 5694 5703 5712 5721 5730 5739 5747 5755 5762 5769 5774 5780 5785 5790 5794 5798 5802 5805 5807 5810 5812 5815 5816 5818 5820 5821 5822 5823 5823 5824 5824 5825 5825 5825 5824 5824 5823 5822 5822 5821 5820
5666 5675 5683 5692 5701 5710 5719 5728 5737 5745 5753 5759 5765 5771 5776 5781 5786 5790 5794 5797 5800 5802 5805 5807 5809 5810 5812 5813 5814 5815 5816 5816 5817 5817 5817 5817 5817 5816 5816 5815 5814 5813 5812
5658 5666 5674 5683 5691 5700 5709 5718 5727 5735 5743 5750 5756 5762 5767 5772 5777 5781 5785 5789 5792 5794 5797 5799 5801 5802 5803 5804 5805 5807 5807 5808 5809 5809 5809 5809 5809 5808 5808 5807 5806 5805 5804
5652 5659 5668 5675 5684 5691 5699 5708 5717 5726 5734 5741 5747 5753 5758 5763 5768 5772 5777 5780 5783 5786 5788 5790 5792 5794 5795 5796 5797 5797 5798 5800 5800 5800 5800 5800 5800 5800 5799 5799 5798 5797 5796
5647 5654 5661 5669 5676 5684 5692 5699 5707 5716 5724 5731 5738 5744 5750 5754 5759 5763 5767 5771 5774 5776 5779 5781 5783 5785 5786 5787 5787 5788 5788 5790 5791 5791 5791 5791 5791 5790 5790 5789 5789 5788 5787
5643 5649 5656 5662 5669 5676 5684 5692 5700 5708 5716 5723 5730 5735 5740 5745 5749 5754 5758 5761 5764 5767 5769 5771 5773 5774 5775 5777 5777 5777 5778 5779 5779 5781 5782 5781 5780 5780 5780 5779 5779 5778 5777
5639 5645 5651 5657 5664 5670 5677 5685 5693 5700 5707 5713 5720 5726 5731 5736 5740 5744 5748 5751 5754 5757 5759 5761 5762 5763 5764 5766 5766 5767 5767 5767 5767 5768 5770 5771 5770 5769 5769 5768 5768 5767 5767
5637 5642 5647 5652 5658 5664 5671 5678 5685 5692 5699 5705 5711 5717 5722 5726 5730 5734 5738 5741 5743 5746 5748 5750 5751 5752 5753 5754 5755 5755 5756 5756 5756 5756 5756 5757 5758 5758 5757 5757 5756 5756 5755